Home > Weather > Al Khor > Past weeks

Flag for Qatar Past Weather in Al Khor, Qatar — Yesterday and Last 2 Weeks

Now
104 °F

Sunny.


Feels Like: 125 °F
Forecast: 91 / 105 °F
Wind: 10 mph from East

Location: Doha International Airport

Current Time: Jul 25, 2016 at 5:06:11 PM

Latest Report: Jul 25, 2016 at 4:00 PM


Visibility: 10 mi

Pressure: 29.39 "Hg

Humidity: 45%

Dew Point: 79 °F

Location of Al KhorLocation

Past Weather in Al Khor — Graph

°F

Al Khor Temperature Yesterday

Maximum temperature yesterday: 100 °F (at 10:00 AM)
Minimum temperature yesterday: 93 °F (at 12:00 AM)
Average temperature yesterday: 97 °F

High & Low Weather Summary for the Past Weeks

 TemperatureHumidityPressure
High117 °F (Jul 20, 1:00 PM)80% (Jul 18, 4:00 AM)29.56 "Hg (Jul 18, 4:00 AM)
Low91 °F (Jul 15, 3:00 AM)1% (Jul 10, 3:00 PM)29.33 "Hg (Jul 23, 1:00 PM)
Average100 °F39%29.45 "Hg
* Reported Jul 10 3:00 PM — Jul 25 3:00 PM, Al Khor, Weather by CustomWeather, © 2016

Note: Actual official high and low records may vary slightly from our data, if they occured in-between our weather recording intervals... More about our weather records

Advertising

Al Khor Weather History for the Previous 24 Hours

Scroll right to see more
 ConditionsComfort  
Time TempWeatherWind HumidityBarometerVisibility
3:00 PM
Mon, Jul 25
109 °FPassing clouds.10 mph28%29.42 "HgN/A
2:00 PM109 °FClear.9 mph30%29.42 "Hg5 mi
1:00 PM106 °FClear.13 mph43%29.45 "Hg4 mi
12:00 PM106 °FDuststorm.14 mph45%29.45 "Hg3 mi
11:00 AM102 °FDuststorm.12 mph54%29.47 "Hg3 mi
10:00 AM100 °FHaze.12 mph60%29.47 "Hg3 mi
9:00 AM99 °FClear.9 mph64%29.47 "Hg4 mi
8:00 AM97 °FClear.7 mph63%29.47 "Hg4 mi
7:00 AM95 °FClear.8 mph67%29.47 "Hg4 mi
6:00 AM95 °FClear.7 mph71%29.45 "Hg4 mi
5:00 AM93 °FClear.7 mph75%29.45 "Hg4 mi
4:00 AM93 °FClear.8 mph71%29.45 "Hg4 mi
3:00 AM93 °FHaze.7 mph71%29.42 "Hg3 mi
2:00 AM93 °FHaze.5 mph71%29.42 "Hg3 mi
1:00 AM93 °FHaze.5 mph75%29.45 "Hg3 mi
12:00 AM93 °FHaze.5 mph75%29.45 "Hg3 mi
11:00 PM
Sun, Jul 24
93 °FClear.6 mph75%29.45 "Hg4 mi
10:00 PM95 °FClear.8 mph71%29.45 "Hg4 mi
9:00 PM95 °FClear.8 mph71%29.45 "Hg4 mi
8:00 PM95 °FClear.8 mph71%29.42 "Hg4 mi
7:00 PM95 °FClear.9 mph80%29.42 "Hg4 mi
6:00 PM97 °FHaze.10 mph67%29.39 "Hg2 mi
5:00 PM99 °FDuststorm.14 mph57%29.39 "Hg2 mi
Weather by CustomWeather, © 2016

See weather overviewHow to use our weather pages